Time,TemperatureF,DewpointF,PressureIn,WindDirection,WindDirectionDegrees,WindSpeedMPH,WindSpeedGustMPH,Humidity,HourlyPrecipIn,Conditions,Clouds,dailyrainin,SolarRadiationWatts/m^2,SoftwareType,DateUTC
2013-08-31 09:40:00,70.0,43.0,30.15,ENE,63,1.0,3.0,37,-99.99,,,-99.99,470.000000,,2013-08-31 16:40:00,
2013-08-31 10:23:00,70.0,43.0,30.15,ENE,63,1.0,3.0,37,-99.99,,,-99.99,470.000000,,2013-08-31 17:23:00,
2013-08-31 10:34:00,70.0,43.0,30.15,ENE,63,1.0,3.0,37,-99.99,,,-99.99,470.000000,,2013-08-31 17:34:00,
2013-08-31 10:40:00,74.0,46.0,30.14,West,267,2.0,3.0,36,-99.99,,,-99.99,700.000000,,2013-08-31 17:40:00,
2013-08-31 11:21:00,74.0,46.0,30.14,West,267,2.0,3.0,36,-99.99,,,-99.99,700.000000,,2013-08-31 18:21:00,
2013-08-31 11:32:00,74.0,46.0,30.14,West,267,2.0,3.0,36,-99.99,,,-99.99,700.000000,,2013-08-31 18:32:00,
2013-08-31 11:40:00,81.0,45.0,30.11,West,272,1.0,4.0,28,-99.99,,,-99.99,850.000000,,2013-08-31 18:40:00,
2013-08-31 12:22:00,81.0,45.0,30.11,West,272,1.0,4.0,28,-99.99,,,-99.99,850.000000,,2013-08-31 19:22:00,
2013-08-31 12:32:00,81.0,45.0,30.11,West,272,1.0,4.0,28,-99.99,,,-99.99,850.000000,,2013-08-31 19:32:00,
2013-08-31 13:40:00,87.0,44.0,30.05,WNW,299,6.0,12.0,22,-99.99,,,-99.99,890.000000,,2013-08-31 20:40:00,
2013-08-31 14:22:00,87.0,44.0,30.05,WNW,299,6.0,12.0,22,-99.99,,,-99.99,890.000000,,2013-08-31 21:22:00,
2013-08-31 14:34:00,87.0,44.0,30.05,WNW,299,6.0,12.0,22,-99.99,,,-99.99,890.000000,,2013-08-31 21:34:00,
2013-08-31 14:40:00,87.0,44.0,30.03,NW,316,7.0,16.0,23,-99.99,,,-99.99,820.000000,,2013-08-31 21:40:00,
2013-08-31 15:23:00,87.0,44.0,30.03,NW,316,7.0,16.0,23,-99.99,,,-99.99,820.000000,,2013-08-31 22:23:00,
2013-08-31 15:32:00,87.0,44.0,30.03,NW,316,7.0,16.0,23,-99.99,,,-99.99,820.000000,,2013-08-31 22:32:00,
2013-08-31 18:40:00,79.0,39.0,30.01,West,278,16.0,23.0,24,-99.99,,,-99.99,50.000000,,2013-09-01 01:40:00,
2013-08-31 19:22:00,79.0,39.0,30.01,West,278,16.0,23.0,24,-99.99,,,-99.99,50.000000,,2013-09-01 02:22:00,
2013-08-31 19:32:00,79.0,39.0,30.01,West,278,16.0,23.0,24,-99.99,,,-99.99,50.000000,,2013-09-01 02:32:00,
2013-08-31 19:40:00,77.0,39.0,30.03,West,276,12.0,20.0,26,-99.99,,,-99.99,10.000000,,2013-09-01 02:40:00,
2013-08-31 20:23:00,77.0,39.0,30.03,West,276,12.0,20.0,26,-99.99,,,-99.99,10.000000,,2013-09-01 03:23:00,
2013-08-31 20:35:00,77.0,39.0,30.03,West,276,12.0,20.0,26,-99.99,,,-99.99,10.000000,,2013-09-01 03:35:00,
2013-08-31 20:40:00,76.0,39.0,30.05,West,280,4.0,12.0,26,-99.99,,,-99.99,0.000000,,2013-09-01 03:40:00,
2013-08-31 21:24:00,76.0,39.0,30.05,West,280,4.0,12.0,26,-99.99,,,-99.99,0.000000,,2013-09-01 04:24:00,
2013-08-31 21:34:00,76.0,39.0,30.05,West,280,4.0,12.0,26,-99.99,,,-99.99,0.000000,,2013-09-01 04:34:00,
2013-08-31 21:40:00,73.0,39.0,30.06,West,263,5.0,11.0,29,-99.99,,,-99.99,0.000000,,2013-09-01 04:40:00,
2013-08-31 22:23:00,73.0,39.0,30.06,West,263,5.0,11.0,29,-99.99,,,-99.99,0.000000,,2013-09-01 05:23:00,
2013-08-31 22:34:00,73.0,39.0,30.06,West,263,5.0,11.0,29,-99.99,,,-99.99,0.000000,,2013-09-01 05:34:00,